User: anonymous   Login
Location: Unspecified
(0.0000°N, 0.0000°E)
Time: 20:49:47
(UTC+00:00)
Language:

OAO 1 - Orbit

View from above orbital plane
View from above orbital plane
View from above satellite
View from above satellite

Ground track
Ground track

The orbit data is extracted from the following two-line orbital elements,

1  2142U 66031A   18140.74364299 +.00000005 +00000-0 +85279-5 0  9994
2  2142 035.0454 238.4222 0007441 229.0782 130.9262 14.33878444727455
Epoch (UTC): 20 May 2018 17:50:50
Eccentricity: 0.0007441
inclination: 35.0454°
perigee height: 773 km
apogee height: 784 km
right ascension of ascending node: 238.4222°
argument of perigee: 229.0782°
revolutions per day: 14.33878444
mean anomaly at epoch: 130.9262°
orbit number at epoch: 72745

The dashed part of the orbit path shows where the satellite is in the earth's shadow,  

DLR